FW4381 Oriental NC US current weather conditions

sailwx.info

Wind from 024 at 1 knots gusting 2

Air temperature 13.3° C
Dewpoint 12.4° C

Last reported at 2020-Jan-25 14:00 UTC.
Time now 2020-Jan-25 14:29 UTC

Location: N 35°03' W 076°40'.
View on Google Maps.

See reports from other nearby stations

  
Tides and Currents Weather Stations Pressure Air Temp Water Temp Dewpoint Dewpoint Depression Visibility Wind Speed Wind Dir Waves Ship Positions
date/time (UTC)wind fromknots sea level pressurealtimeterstation pressurevisibilityair tempwater tempwave heightnotes
2020-Jan-25 14:00 024 1 gusting 2 13.3
2020-Jan-25 13:55 017 0 gusting 1 13.3
2020-Jan-25 13:50 017 13.3
2020-Jan-25 13:45 017 1 gusting 2 13.3
2020-Jan-25 13:40 017 0 gusting 2 13.3
2020-Jan-25 13:35 015 0 gusting 2 13.3
2020-Jan-25 13:30 355 13.3
2020-Jan-25 13:25 308 1 gusting 3 13.3
2020-Jan-25 13:20 360 1 gusting 4 13.3
2020-Jan-25 13:15 331 1 gusting 4 13.9
2020-Jan-25 13:10 014 0 gusting 4 13.9
2020-Jan-25 13:05 355 1 gusting 4 14.4
2020-Jan-25 13:00 327 0 gusting 3 14.4
2020-Jan-25 12:55 346 1 gusting 3 14.4
2020-Jan-25 12:50 349 1 gusting 4 14.4
2020-Jan-25 12:45 355 1 gusting 4 15.0
2020-Jan-25 12:40 340 0 gusting 4 15.0
2020-Jan-25 12:35 321 1 gusting 3 15.0
2020-Jan-25 12:30 228 15.6
2020-Jan-25 12:25 251 15.6
2020-Jan-25 12:20 251 15.6
2020-Jan-25 12:15 219 15.0
2020-Jan-25 12:10 243 0 gusting 5 15.0
2020-Jan-25 12:05 217 2 gusting 5 15.0
2020-Jan-25 12:00 255 0 gusting 7 15.0
2020-Jan-25 11:55 252 1 gusting 9 15.0
2020-Jan-25 11:50 227 5 gusting 9 15.0
2020-Jan-25 11:45 214 5 gusting 10 15.6
2020-Jan-25 11:40 227 6 gusting 10 15.6
2020-Jan-25 11:35 218 6 gusting 10 15.6
2020-Jan-25 11:30 219 6 gusting 13 15.6
2020-Jan-25 11:25 242 6 gusting 13 15.6
2020-Jan-25 11:20 287 6 gusting 13 15.6
2020-Jan-25 11:15 200 8 gusting 13 15.6
2020-Jan-25 11:10 212 6 gusting 17 15.6
2020-Jan-25 11:05 205 9 gusting 19 16.1
2020-Jan-25 11:02 230 8 gusting 19 15.6
2020-Jan-25 10:55 208 9 gusting 17 16.1
2020-Jan-25 10:50 210 6 gusting 16 16.1
2020-Jan-25 10:45 203 6 gusting 15 16.1
2020-Jan-25 10:35 217 10 gusting 20 16.7
2020-Jan-25 10:30 219 8 gusting 19 16.7
2020-Jan-25 10:25 165 9 gusting 19 16.7
2020-Jan-25 10:20 184 4 gusting 8 16.7
2020-Jan-25 10:17 206 4 gusting 9 16.1
2020-Jan-25 10:10 190 6 gusting 10 16.7
2020-Jan-25 10:05 183 6 gusting 10 16.7
2020-Jan-25 10:00 222 5 gusting 10 16.7
2020-Jan-25 09:55 232 6 gusting 10 16.7
2020-Jan-25 09:50 192 7 gusting 14 16.7
2020-Jan-25 09:47 221 6 gusting 13 16.7
2020-Jan-25 09:40 206 6 gusting 13 17.2
2020-Jan-25 09:35 221 8 gusting 14 17.2
2020-Jan-25 09:30 189 7 gusting 14 16.7
2020-Jan-25 09:25 198 6 gusting 14 16.7
2020-Jan-25 09:20 222 6 gusting 9 16.7
2020-Jan-25 09:16 199 6 gusting 10 16.1
2020-Jan-25 09:10 220 6 gusting 13 16.1
2020-Jan-25 09:05 215 7 gusting 14 16.7
2020-Jan-25 09:00 200 8 gusting 14 16.7
2020-Jan-25 08:55 213 5 gusting 12 16.1
2020-Jan-25 08:50 192 6 gusting 12 16.1
2020-Jan-25 08:45 228 6 gusting 12 16.1
2020-Jan-25 08:40 219 6 gusting 12 16.1
2020-Jan-25 08:35 227 7 gusting 10 16.1
2020-Jan-25 08:30 200 6 gusting 8 16.1
2020-Jan-25 08:25 206 6 gusting 8 16.1
2020-Jan-25 08:20 234 6 gusting 9 16.1
2020-Jan-25 08:15 230 3 gusting 10 16.1
2020-Jan-25 08:10 227 6 gusting 10 16.1
2020-Jan-25 08:05 225 3 gusting 6 16.1
2020-Jan-25 08:00 232 3 gusting 8 16.1
2020-Jan-25 07:55 234 2 gusting 8 16.1
2020-Jan-25 07:50 225 5 gusting 8 16.1
2020-Jan-25 07:45 213 3 gusting 8 16.1
2020-Jan-25 07:40 201 3 gusting 8 16.1
2020-Jan-25 07:35 210 5 gusting 8 16.1
2020-Jan-25 07:30 225 4 gusting 9 16.1
2020-Jan-25 07:25 209 6 gusting 10 16.1
2020-Jan-25 07:20 205 6 gusting 10 16.1
2020-Jan-25 07:15 204 6 gusting 11 16.1
2020-Jan-25 07:10 175 6 gusting 11 16.1
2020-Jan-25 07:05 232 6 gusting 9 16.1
2020-Jan-25 07:00 215 6 gusting 9 15.6
2020-Jan-25 06:55 215 6 gusting 10 15.6
2020-Jan-25 06:50 227 4 gusting 6 15.6
2020-Jan-25 06:48 219 3 gusting 6 15.0
2020-Jan-25 06:40 199 3 gusting 6 15.6
2020-Jan-25 06:35 187 3 gusting 5 15.6
2020-Jan-25 06:30 223 3 gusting 6 15.6
2020-Jan-25 06:25 218 4 gusting 7 15.6
2020-Jan-25 06:20 190 3 gusting 7 15.6
2020-Jan-25 06:15 211 4 gusting 7 15.6
2020-Jan-25 06:10 194 5 gusting 8 15.6
2020-Jan-25 06:05 195 5 gusting 6 15.6
2020-Jan-25 06:00 192 4 gusting 6 15.6
2020-Jan-25 05:55 182 4 gusting 6 15.6
2020-Jan-25 05:50 211 5 gusting 7 15.6
2020-Jan-25 05:45 206 4 gusting 7 15.6
2020-Jan-25 05:40 189 4 gusting 8 15.6
2020-Jan-25 05:35 201 4 gusting 8 15.6
2020-Jan-25 05:30 213 4 gusting 7 15.6
2020-Jan-25 05:25 205 5 gusting 7 15.6
2020-Jan-25 05:20 192 3 gusting 8 15.0
2020-Jan-25 05:15 216 4 gusting 8 15.6
2020-Jan-25 05:10 174 3 gusting 7 15.0
2020-Jan-25 05:05 207 4 gusting 7 15.0
2020-Jan-25 05:00 190 2 gusting 5 15.0
2020-Jan-25 04:55 212 2 gusting 5 15.0
2020-Jan-25 04:50 205 3 gusting 5 15.0
2020-Jan-25 04:45 207 1 gusting 6 15.0
2020-Jan-25 04:40 216 2 gusting 6 15.0
2020-Jan-25 04:35 200 1 gusting 4 15.0
2020-Jan-25 04:31 180 1 gusting 4 15.0
2020-Jan-25 04:25 216 2 gusting 5 15.6
2020-Jan-25 04:20 194 3 gusting 7 15.6
2020-Jan-25 04:15 225 3 gusting 7 15.6
2020-Jan-25 04:10 232 4 gusting 7 15.6
2020-Jan-25 04:05 230 4 gusting 8 15.6
2020-Jan-25 04:01 223 3 gusting 8 15.0
2020-Jan-25 03:55 204 5 gusting 6 15.6
2020-Jan-25 03:50 208 3 gusting 6 15.6
2020-Jan-25 03:45 198 5 gusting 8 15.6
2020-Jan-25 03:40 207 3 gusting 8 15.6
2020-Jan-25 03:35 207 6 gusting 9 15.6
2020-Jan-25 03:31 202 4 gusting 7 15.0
2020-Jan-25 03:25 196 5 gusting 6 15.0
2020-Jan-25 03:20 192 4 gusting 6 14.4
2020-Jan-25 03:15 219 3 gusting 6 14.4
2020-Jan-25 03:10 211 2 gusting 6 14.4
2020-Jan-25 03:05 215 3 gusting 5 13.9
2020-Jan-25 03:00 234 2 gusting 5 12.8
2020-Jan-25 02:55 230 2 gusting 4 12.2
2020-Jan-25 02:50 202 0 gusting 2 11.1
2020-Jan-25 02:45 088 10.0
2020-Jan-25 02:40 088 10.0
2020-Jan-25 02:35 088 10.0
2020-Jan-25 02:30 088 10.0
2020-Jan-25 02:25 088 10.0
2020-Jan-25 02:20 088 10.0
2020-Jan-25 02:15 088 10.0
2020-Jan-25 02:10 088 10.0
2020-Jan-25 02:05 088 10.6
2020-Jan-25 02:00 088 10.6
2020-Jan-25 01:55 088 1 gusting 2 10.6
2020-Jan-25 01:50 088 1 gusting 2 10.6
2020-Jan-25 01:45 130 1 gusting 1 10.6
2020-Jan-25 01:40 130 11.1
2020-Jan-25 01:35 130 11.1
2020-Jan-25 01:30 130 1 gusting 1 11.1
2020-Jan-25 01:25 188 0 gusting 1 11.1
2020-Jan-25 01:20 188 11.1
2020-Jan-25 01:15 152 11.1
2020-Jan-25 01:05 148 11.1
2020-Jan-25 01:00 118 11.1
2020-Jan-25 00:55 139 0 gusting 1 11.1
2020-Jan-25 00:50 079 11.1
2020-Jan-25 00:48 079 10.6
2020-Jan-25 00:40 079 11.1
2020-Jan-25 00:35 079 11.1
2020-Jan-25 00:30 079 0 gusting 1 11.1
2020-Jan-25 00:25 079 11.1
2020-Jan-25 00:20 079 0 gusting 2 11.1
2020-Jan-25 00:16 078 11.1
2020-Jan-25 00:10 094 0 gusting 2 11.7
2020-Jan-25 00:05 069 11.7
2020-Jan-25 00:00 069 0 gusting 1 11.7
2020-Jan-24 23:55 069 11.7
2020-Jan-24 23:50 065 0 gusting 2 11.7
2020-Jan-24 23:46 065 0 gusting 2 11.7
2020-Jan-24 23:40 064 11.7
2020-Jan-24 23:35 064 0 gusting 2 11.7
2020-Jan-24 23:30 064 0 gusting 2 11.7
2020-Jan-24 23:25 064 0 gusting 1 11.7
2020-Jan-24 23:20 064 0 gusting 2 11.7
2020-Jan-24 23:18 067 0 gusting 2 11.7
2020-Jan-24 23:10 098 11.7
2020-Jan-24 23:05 098 0 gusting 1 11.7
2020-Jan-24 23:00 079 11.7
2020-Jan-24 22:50 079 11.7
2020-Jan-24 22:45 078 11.7
2020-Jan-24 22:40 078 11.7
2020-Jan-24 22:35 078 11.7
2020-Jan-24 22:31 122 0 gusting 1 11.1
2020-Jan-24 22:25 157 0 gusting 1 11.7
2020-Jan-24 22:20 159 0 gusting 1 11.7
2020-Jan-24 22:15 159 0 gusting 4 11.7
2020-Jan-24 22:10 172 0 gusting 4 11.7
2020-Jan-24 22:05 121 0 gusting 5 11.7
2020-Jan-24 22:00 163 1 gusting 5 12.2
2020-Jan-24 21:55 164 1 gusting 4 12.2
2020-Jan-24 21:50 188 1 gusting 6 12.8
2020-Jan-24 21:45 083 0 gusting 6 12.8
2020-Jan-24 21:35 049 3 gusting 8 13.3
2020-Jan-24 21:33 075 2 gusting 9 13.9
2020-Jan-24 21:25 145 3 gusting 9 14.4
2020-Jan-24 21:20 111 2 gusting 7 15.0
2020-Jan-24 21:15 086 2 gusting 10 15.0
2020-Jan-24 21:05 078 2 gusting 6 15.6
2020-Jan-24 21:00 123 2 gusting 4 15.6
2020-Jan-24 20:55 117 1 gusting 6 15.6
2020-Jan-24 20:50 042 1 gusting 6 15.6
2020-Jan-24 20:47 063 0 gusting 6 15.6
2020-Jan-24 20:40 161 1 gusting 6 16.1
2020-Jan-24 20:35 089 1 gusting 6 16.1
2020-Jan-24 20:30 074 1 gusting 8 16.1
2020-Jan-24 20:25 042 2 gusting 7 16.1
2020-Jan-24 20:20 068 0 gusting 7 15.6
2020-Jan-24 20:15 055 1 gusting 5 15.6
2020-Jan-24 20:10 086 0 gusting 3 15.6
2020-Jan-24 20:05 089 1 gusting 6 15.6
2020-Jan-24 20:03 047 1 gusting 6 15.0
2020-Jan-24 19:55 156 1 gusting 6 15.0
2020-Jan-24 19:50 088 0 gusting 8 15.0
2020-Jan-24 19:45 130 3 gusting 8 15.0
2020-Jan-24 19:40 092 0 gusting 5 15.0
2020-Jan-24 19:35 116 1 gusting 5 15.0
2020-Jan-24 19:31 065 0 gusting 9 14.4
2020-Jan-24 19:25 119 1 gusting 7 15.0
2020-Jan-24 19:20 137 3 gusting 6 15.0
2020-Jan-24 19:15 107 3 gusting 7 15.6
2020-Jan-24 19:05 046 1 gusting 6 15.0
2020-Jan-24 19:01 097 1 gusting 6 15.0
2020-Jan-24 18:55 023 3 gusting 6 15.6
2020-Jan-24 18:50 042 2 gusting 5 15.6
2020-Jan-24 18:45 047 3 gusting 6 15.6
2020-Jan-24 18:35 080 1 gusting 9 15.0
2020-Jan-24 18:30 141 3 gusting 9 15.0
2020-Jan-24 18:25 051 2 gusting 9 15.0
2020-Jan-24 18:20 136 4 gusting 9 15.0
2020-Jan-24 18:16 086 4 gusting 7 15.0
2020-Jan-24 18:10 173 3 gusting 6 15.0
2020-Jan-24 18:05 200 1 gusting 6 14.4
2020-Jan-24 18:02 085 1 gusting 6 13.9
2020-Jan-24 17:55 061 3 gusting 8 13.9
2020-Jan-24 17:50 028 2 gusting 8 13.9
2020-Jan-24 17:45 056 3 gusting 7 13.9
2020-Jan-24 17:35 029 3 gusting 6 14.4
2020-Jan-24 17:30 058 2 gusting 6 14.4
2020-Jan-24 17:25 092 3 gusting 6 14.4
2020-Jan-24 17:20 070 1 gusting 6 14.4
2020-Jan-24 17:15 065 3 gusting 6 13.9
2020-Jan-24 17:10 098 3 gusting 7 13.9
2020-Jan-24 17:05 055 4 gusting 9 14.4
2020-Jan-24 17:00 051 3 gusting 9 14.4
2020-Jan-24 16:55 104 3 gusting 8 15.0
2020-Jan-24 16:50 064 4 gusting 8 15.0
2020-Jan-24 16:46 128 1 gusting 9 14.4
2020-Jan-24 16:40 053 3 gusting 7 14.4
2020-Jan-24 16:35 069 2 gusting 5 14.4
2020-Jan-24 16:30 068 2 gusting 5 14.4
2020-Jan-24 16:25 050 2 gusting 4 14.4
2020-Jan-24 16:20 073 1 gusting 4 13.9
2020-Jan-24 16:15 065 1 gusting 4 13.9
2020-Jan-24 16:10 047 2 gusting 5 13.3
2020-Jan-24 16:05 044 4 gusting 5 13.3
2020-Jan-24 16:00 036 2 gusting 4 13.3
2020-Jan-24 15:55 105 0 gusting 2 13.3
2020-Jan-24 15:50 137 13.3
2020-Jan-24 15:45 139 0 gusting 3 13.3
2020-Jan-24 15:40 173 1 gusting 3 12.8
2020-Jan-24 15:35 131 0 gusting 5 12.8
2020-Jan-24 15:31 190 12.8
2020-Jan-24 15:25 193 3 gusting 6 13.3
2020-Jan-24 15:20 190 5 gusting 6 13.3
2020-Jan-24 15:15 193 4 gusting 6 13.9
2020-Jan-24 15:10 190 14.4
2020-Jan-24 15:05 191 1 gusting 7 14.4
2020-Jan-24 15:00 159 4 gusting 7 15.0
2020-Jan-24 14:55 090 3 gusting 6 15.0
2020-Jan-24 14:50 032 2 gusting 4 15.0
2020-Jan-24 14:45 059 2 gusting 5 15.0
2020-Jan-24 14:35 051 2 gusting 4 14.4
2020-Jan-24 14:32 022 0 gusting 5 13.9
2020-Jan-24 14:25 041 2 gusting 7 13.9
2020-Jan-24 14:20 020 1 gusting 4 13.3
2020-Jan-24 14:15 040 1 gusting 5 12.8
2020-Jan-24 14:10 044 0 gusting 3 12.2
2020-Jan-24 14:05 342 0 gusting 2 11.7
2020-Jan-24 14:00 320 1 gusting 2 11.7
2020-Jan-24 13:50 325 1 gusting 3 11.7
2020-Jan-24 13:45 051 0 gusting 3 11.7
2020-Jan-24 13:40 024 11.1
2020-Jan-24 13:35 024 11.1
2020-Jan-24 13:32 024 0 gusting 2 10.6
2020-Jan-24 13:25 009 0 gusting 1 10.6
2020-Jan-24 13:20 355 10.6
2020-Jan-24 13:15 355 10.0
2020-Jan-24 13:10 355 9.4
2020-Jan-24 13:05 355 9.4
2020-Jan-24 13:00 355 9.4
2020-Jan-24 12:55 355 10.0
2020-Jan-24 12:50 355 10.0
2020-Jan-24 12:45 355 10.0
2020-Jan-24 12:40 034 0 gusting 1 10.0
2020-Jan-24 12:35 034 10.0
2020-Jan-24 12:31 034 9.4
2020-Jan-24 12:25 034 10.0
2020-Jan-24 12:20 034 0 gusting 1 10.0
2020-Jan-24 12:15 034 10.0
2020-Jan-24 12:05 034 10.0
2020-Jan-24 12:00 034 0 gusting 3 10.0
2020-Jan-24 11:55 034 0 gusting 2 10.0
2020-Jan-24 11:50 034 1 gusting 2 10.0
2020-Jan-24 11:47 041 0 gusting 4 10.0
2020-Jan-24 11:40 045 1 gusting 4 10.0
2020-Jan-24 11:35 014 1 gusting 2 9.4
2020-Jan-24 11:30 029 0 gusting 1 9.4
2020-Jan-24 11:25 030 0 gusting 2 9.4
2020-Jan-24 11:20 040 0 gusting 1 9.4
2020-Jan-24 11:15 040 0 gusting 3 9.4
2020-Jan-24 11:10 012 0 gusting 2 8.9
2020-Jan-24 11:05 012 0 gusting 1 8.9
2020-Jan-24 11:00 040 0 gusting 2 8.9
2020-Jan-24 10:55 028 0 gusting 2 8.3
2020-Jan-24 10:50 044 2 gusting 2 8.3
2020-Jan-24 10:45 012 0 gusting 1 8.9
2020-Jan-24 10:40 012 0 gusting 1 8.3
2020-Jan-24 10:35 012 0 gusting 1 8.3
2020-Jan-24 10:32 012 8.3
2020-Jan-24 10:25 012 0 gusting 1 8.3
2020-Jan-24 10:20 012 0 gusting 2 8.3
2020-Jan-24 10:15 012 0 gusting 2 8.9
2020-Jan-24 10:10 012 0 gusting 1 8.9
2020-Jan-24 10:05 012 0 gusting 1 8.9
2020-Jan-24 10:00 012 8.9
2020-Jan-24 09:55 012 0 gusting 1 8.9
2020-Jan-24 09:50 012 0 gusting 1 8.9
2020-Jan-24 09:47 012 8.3
2020-Jan-24 09:40 012 8.9
2020-Jan-24 09:35 012 8.9
2020-Jan-24 09:30 012 8.9
2020-Jan-24 09:25 012 0 gusting 1 8.3
2020-Jan-24 09:20 012 8.9
2020-Jan-24 09:15 012 0 gusting 2 8.9
2020-Jan-24 09:10 012 0 gusting 2 8.9
2020-Jan-24 09:05 012 8.3
2020-Jan-24 09:00 012 0 gusting 1 8.3
2020-Jan-24 08:55 012 0 gusting 1 8.9
2020-Jan-24 08:50 012 8.9
2020-Jan-24 08:45 012 0 gusting 1 8.9
2020-Jan-24 08:40 012 8.9
2020-Jan-24 08:35 012 8.9
2020-Jan-24 08:30 012 0 gusting 1 9.4
2020-Jan-24 08:25 012 9.4
2020-Jan-24 08:20 012 9.4
2020-Jan-24 08:15 012 0 gusting 1 9.4
2020-Jan-24 08:10 012 0 gusting 1 10.0
2020-Jan-24 08:05 012 0 gusting 2 10.0
2020-Jan-24 08:01 013 0 gusting 2 10.0
2020-Jan-24 07:55 355 0 gusting 2 10.0
2020-Jan-24 07:50 355 1 gusting 4 10.6
2020-Jan-24 07:45 034 1 gusting 4 10.6
2020-Jan-24 07:35 038 0 gusting 2 10.0
2020-Jan-24 07:33 041 0 gusting 2 9.4
2020-Jan-24 07:25 041 0 gusting 2 10.0
2020-Jan-24 07:20 044 0 gusting 3 10.0
2020-Jan-24 07:16 044 0 gusting 3 9.4
2020-Jan-24 07:10 040 0 gusting 3 10.0
2020-Jan-24 07:05 005 0 gusting 2 10.0
2020-Jan-24 07:00 346 10.0
2020-Jan-24 06:55 346 0 gusting 2 10.0
2020-Jan-24 06:50 346 0 gusting 2 10.0
2020-Jan-24 06:46 346 10.0
2020-Jan-24 06:40 346 1 gusting 3 10.0
2020-Jan-24 06:35 010 0 gusting 2 10.0
2020-Jan-24 06:30 010 1 gusting 3 10.0
2020-Jan-24 06:25 010 1 gusting 3 10.0
2020-Jan-24 06:20 023 10.0
2020-Jan-24 06:15 010 10.0
2020-Jan-24 06:10 009 0 gusting 3 10.0
2020-Jan-24 06:05 055 0 gusting 4 10.0
2020-Jan-24 06:00 030 2 gusting 4 10.6
2020-Jan-24 05:55 046 1 gusting 4 10.0
2020-Jan-24 05:50 019 2 gusting 4 10.6
2020-Jan-24 05:45 038 1 gusting 2 10.6
2020-Jan-24 05:40 046 0 gusting 3 10.6
2020-Jan-24 05:35 014 0 gusting 3 10.6
2020-Jan-24 05:30 005 1 gusting 4 10.6
2020-Jan-24 05:20 067 1 gusting 5 10.0
2020-Jan-24 05:15 037 2 gusting 4 10.6
2020-Jan-24 05:10 033 3 gusting 4 10.6
2020-Jan-24 05:05 055 0 gusting 2 10.0
2020-Jan-24 05:01 019 0 gusting 2 10.0
2020-Jan-24 04:55 019 1 gusting 2 10.0
2020-Jan-24 04:50 026 1 gusting 3 10.0
2020-Jan-24 04:45 010 1 gusting 3 10.6
2020-Jan-24 04:40 355 0 gusting 3 10.6
2020-Jan-24 04:35 005 1 gusting 2 10.6
2020-Jan-24 04:33 005 0 gusting 5 10.0
2020-Jan-24 04:25 030 1 gusting 5 10.6
2020-Jan-24 04:20 031 2 gusting 4 10.6
2020-Jan-24 04:16 043 1 gusting 5 10.6
2020-Jan-24 04:10 046 3 gusting 6 10.6
2020-Jan-24 04:05 025 4 gusting 8 11.1
2020-Jan-24 04:00 011 3 gusting 8 11.1
2020-Jan-24 03:55 031 5 gusting 8 11.1
2020-Jan-24 03:50 042 3 gusting 8 11.1
2020-Jan-24 03:45 040 4 gusting 7 11.1
2020-Jan-24 03:40 048 4 gusting 9 11.1
2020-Jan-24 03:35 026 5 gusting 9 11.1
2020-Jan-24 03:30 088 5 gusting 10 11.1
2020-Jan-24 03:25 027 6 gusting 10 10.6
2020-Jan-24 03:20 034 3 gusting 5 10.6
2020-Jan-24 03:15 065 3 gusting 5 10.6
2020-Jan-24 03:10 064 3 gusting 7 10.6
2020-Jan-24 03:05 048 3 gusting 7 10.6
2020-Jan-24 03:00 025 2 gusting 6 10.6
2020-Jan-24 02:55 056 3 gusting 7 10.6
2020-Jan-24 02:50 050 4 gusting 7 10.6
2020-Jan-24 02:45 057 4 gusting 7 10.6
2020-Jan-24 02:40 071 5 gusting 7 10.6
2020-Jan-24 02:35 043 4 gusting 7 11.1
2020-Jan-24 02:31 335 2 gusting 8 10.6
2020-Jan-24 02:25 060 3 gusting 7 10.6
2020-Jan-24 02:20 063 5 gusting 10 10.6
2020-Jan-24 02:15 053 2 gusting 10 10.6
2020-Jan-24 02:10 044 6 gusting 9 10.6
2020-Jan-24 02:05 022 3 gusting 6 10.6
2020-Jan-24 02:00 061 4 gusting 6 10.6
2020-Jan-24 01:55 032 1 gusting 7 10.6
2020-Jan-24 01:50 046 3 gusting 7 10.6
2020-Jan-24 01:46 038 3 gusting 7 10.6
2020-Jan-24 01:40 013 5 gusting 7 10.6
2020-Jan-24 01:35 343 4 gusting 6 10.6
2020-Jan-24 01:30 034 2 gusting 7 10.6
2020-Jan-24 01:25 021 2 gusting 7 10.6
2020-Jan-24 01:20 046 4 gusting 9 10.6
2020-Jan-24 01:16 011 5 gusting 9 10.6
2020-Jan-24 01:10 013 4 gusting 11 10.6
2020-Jan-24 01:05 031 6 gusting 11 10.6
2020-Jan-24 01:00 050 5 gusting 10 10.6
2020-Jan-24 00:55 019 3 gusting 8 10.6
2020-Jan-24 00:50 044 2 gusting 9 11.1
2020-Jan-24 00:45 058 5 gusting 8 11.1
2020-Jan-24 00:40 026 4 gusting 8 11.1
2020-Jan-24 00:35 050 4 gusting 9 11.1
2020-Jan-24 00:30 063 5 gusting 9 11.1
2020-Jan-24 00:20 067 5 gusting 9 11.1
2020-Jan-24 00:15 036 4 gusting 9 11.1
2020-Jan-24 00:10 059 5 gusting 9 11.1
2020-Jan-24 00:05 360 6 gusting 12 11.1
2020-Jan-24 00:00 057 5 gusting 9 11.1
2020-Jan-23 23:55 061 5 gusting 8 11.1
2020-Jan-23 23:50 044 5 gusting 9 11.1
2020-Jan-23 23:45 057 5 gusting 9 11.1
2020-Jan-23 23:40 057 4 gusting 10 11.1
2020-Jan-23 23:35 051 5 gusting 10 11.1
2020-Jan-23 23:32 086 4 gusting 8 11.1
2020-Jan-23 23:25 023 5 gusting 9 11.1
2020-Jan-23 23:20 036 4 gusting 9 11.1
2020-Jan-23 23:15 017 5 gusting 9 11.1
2020-Jan-23 23:05 062 3 gusting 7 11.7
2020-Jan-23 23:00 024 4 gusting 7 11.7
2020-Jan-23 22:55 044 4 gusting 7 11.7
2020-Jan-23 22:50 046 3 gusting 6 11.7
2020-Jan-23 22:46 005 3 gusting 9 11.7
2020-Jan-23 22:40 042 5 gusting 9 12.2
2020-Jan-23 22:35 011 4 gusting 8 12.2
2020-Jan-23 22:30 061 4 gusting 9 12.2
2020-Jan-23 22:25 011 6 gusting 9 12.2
2020-Jan-23 22:20 041 4 gusting 9 12.2
2020-Jan-23 22:15 061 5 gusting 10 12.8
2020-Jan-23 22:10 027 4 gusting 10 12.8
2020-Jan-23 22:05 071 6 gusting 9 12.8
2020-Jan-23 22:00 005 3 gusting 7 12.8
2020-Jan-23 21:50 021 4 gusting 8 12.8
2020-Jan-23 21:45 015 4 gusting 7 12.8
2020-Jan-23 21:40 049 3 gusting 7 13.3
2020-Jan-23 21:35 360 4 gusting 8 13.3
2020-Jan-23 21:31 049 4 gusting 8 13.3
2020-Jan-23 21:25 054 4 gusting 8 13.3
2020-Jan-23 21:20 346 3 gusting 6 13.3
2020-Jan-23 21:15 034 2 gusting 8 13.9
2020-Jan-23 21:10 064 4 gusting 8 13.9
2020-Jan-23 21:05 048 2 gusting 5 13.9
2020-Jan-23 21:00 050 3 gusting 10 13.9
2020-Jan-23 20:55 042 6 gusting 10 13.9
2020-Jan-23 20:50 032 4 gusting 10 13.9
2020-Jan-23 20:46 053 4 gusting 10 13.3
2020-Jan-23 20:40 054 4 gusting 9 13.9
2020-Jan-23 20:35 019 2 gusting 8 13.9
2020-Jan-23 20:30 063 3 gusting 8 13.9
2020-Jan-23 20:25 043 3 gusting 6 13.9
2020-Jan-23 20:20 033 2 gusting 6 13.9
2020-Jan-23 20:15 040 3 gusting 9 13.9
2020-Jan-23 20:10 013 6 gusting 12 13.9
2020-Jan-23 20:05 043 7 gusting 12 13.9
2020-Jan-23 20:00 040 6 gusting 13 13.9
2020-Jan-23 19:50 063 5 gusting 11 13.9
2020-Jan-23 19:45 063 6 gusting 11 13.9
2020-Jan-23 19:40 063 4 gusting 10 13.9
2020-Jan-23 19:35 061 6 gusting 12 13.9
2020-Jan-23 19:32 070 7 gusting 12 13.9
2020-Jan-23 19:25 057 8 gusting 12 13.9
2020-Jan-23 19:20 039 6 gusting 12 13.9
2020-Jan-23 19:15 045 6 gusting 12 13.9
2020-Jan-23 19:10 022 6 gusting 12 13.9
2020-Jan-23 19:05 011 7 gusting 11 13.9
2020-Jan-23 19:02 054 4 gusting 13 13.9
2020-Jan-23 18:55 091 6 gusting 13 14.4
2020-Jan-23 18:50 103 5 gusting 13 14.4
2020-Jan-23 18:46 069 5 gusting 13 13.9
2020-Jan-23 18:40 032 9 gusting 13 14.4
2020-Jan-23 18:35 052 5 gusting 12 13.9
2020-Jan-23 18:30 083 6 gusting 12 13.9
2020-Jan-23 18:25 057 6 gusting 11 13.9
2020-Jan-23 18:20 058 7 gusting 13 13.9
2020-Jan-23 18:15 044 7 gusting 14 13.9
2020-Jan-23 18:05 044 6 gusting 13 13.9
2020-Jan-23 18:00 030 6 gusting 13 13.3
2020-Jan-23 17:55 095 9 gusting 12 13.3
2020-Jan-23 17:50 019 6 gusting 12 13.3
2020-Jan-23 17:46 038 6 gusting 12 12.8
2020-Jan-23 17:40 005 6 gusting 13 13.3
2020-Jan-23 17:35 061 8 gusting 13 13.3
2020-Jan-23 17:30 080 6 gusting 11 13.3
2020-Jan-23 17:25 067 6 gusting 12 13.3
2020-Jan-23 17:20 005 5 gusting 12 13.3
2020-Jan-23 17:17 067 7 gusting 12 12.8
2020-Jan-23 17:10 026 6 gusting 11 12.8
2020-Jan-23 17:05 049 6 gusting 11 12.8
2020-Jan-23 17:00 059 5 gusting 14 12.8
2020-Jan-23 16:50 055 6 gusting 12 12.2
2020-Jan-23 16:45 081 6 gusting 12 11.7
2020-Jan-23 16:40 033 8 gusting 12 11.7
2020-Jan-23 16:35 019 3 gusting 9 11.7
2020-Jan-23 16:30 050 4 gusting 9 11.7
2020-Jan-23 16:20 049 6 gusting 12 11.1
2020-Jan-23 16:15 075 6 gusting 12 11.1
2020-Jan-23 16:10 054 5 gusting 10 11.1
2020-Jan-23 16:05 036 4 gusting 9 10.6
2020-Jan-23 16:02 063 4 gusting 9 10.6
2020-Jan-23 15:55 056 6 gusting 9 10.6
2020-Jan-23 15:50 015 5 gusting 8 10.6
2020-Jan-23 15:45 360 5 gusting 12 10.6
2020-Jan-23 15:40 064 7 gusting 12 10.0
2020-Jan-23 15:35 061 7 gusting 12 10.0
2020-Jan-23 15:30 046 5 gusting 13 10.0
2020-Jan-23 15:25 017 5 gusting 9 9.4
2020-Jan-23 15:20 030 6 gusting 11 9.4
2020-Jan-23 15:15 027 4 gusting 11 8.9
2020-Jan-23 15:10 055 7 gusting 11 8.9
2020-Jan-23 15:05 355 6 gusting 11 8.9
2020-Jan-23 15:00 040 4 gusting 11 8.3
2020-Jan-23 14:55 057 4 gusting 15 8.3
2020-Jan-23 14:50 049 7 gusting 15 8.3
2020-Jan-23 14:45 046 6 gusting 12 7.8
2020-Jan-23 14:40 020 6 gusting 12 7.8
2020-Jan-23 14:35 057 6 gusting 12 7.8
2020-Jan-23 14:30 026 6 gusting 12 7.8
2020-Jan-23 14:25 047 5 gusting 12 7.8
2020-Jan-23 14:20 068 5 gusting 13 7.8
2020-Jan-23 14:15 042 6 gusting 13 7.2
2020-Jan-23 14:10 015 5 gusting 10 7.2
2020-Jan-23 14:05 017 4 gusting 10 7.2
2020-Jan-23 14:00 045 5 gusting 9 6.7